Theta_e
311 311 310 309 308 307 307 307 307 308 309 309 308 308 308 308 308 308 309 310 310 311 313 313 314 315 315 315 314 315 315 315 321 323 322 320 317 317 314 314 315 313 313 315 316 316 315 316 316 315 317 319 321 324 323 323 323 324 328 323 318 318 316 317 317 318 320 319 317 317 317 317 317 317 316 315 315 316 316 317 316 315 315 314 314 314 314 314
310 310 310 310 309 308 307 307 307 308 309 310 310 310 310 310 309 309 310 310 311 313 314 314 315 315 315 314 315 315 315 318 321 319 316 316 316 315 314 314 314 313 315 317 316 315 315 315 316 315 316 320 321 323 324 324 322 323 325 320 318 319 316 316 316 316 318 318 317 318 317 316 316 316 316 315 316 316 316 317 316 315 315 314 314 314 314 314
308 308 309 309 309 309 308 308 307 308 309 309 310 312 312 312 311 309 310 311 313 314 314 315 315 315 315 314 316 315 318 325 324 319 316 314 315 314 313 314 314 314 315 316 315 315 315 315 315 316 316 319 320 320 322 324 323 321 322 321 319 318 316 315 315 316 316 317 317 317 317 315 315 316 316 316 316 316 317 317 316 316 316 315 314 314 314 314
308 307 307 308 309 309 309 309 309 308 309 309 310 311 312 312 311 310 311 312 313 314 315 315 314 315 314 315 317 315 322 330 323 318 315 314 315 314 314 315 315 315 316 316 315 315 315 315 315 315 317 319 318 318 320 321 321 320 319 320 318 316 317 316 316 316 316 317 316 316 317 316 316 316 316 316 316 317 317 316 315 315 314 314 313 313 314 314
309 307 305 307 309 310 310 310 310 310 309 309 309 310 310 311 311 311 312 313 314 314 315 315 314 315 314 317 316 316 327 328 318 317 315 314 314 314 315 315 315 316 316 316 316 316 316 316 316 317 318 319 320 319 318 317 318 318 318 319 318 317 318 316 317 317 317 316 316 316 316 316 316 316 316 316 316 318 316 314 314 313 312 312 313 313 313 313
309 308 307 307 308 309 309 310 310 310 310 309 309 310 310 310 311 311 312 314 314 315 315 314 315 315 316 317 316 319 329 323 316 318 314 313 314 313 315 314 315 316 315 316 317 317 317 317 316 318 319 318 319 318 317 317 317 318 319 319 318 317 317 317 317 317 316 316 316 316 316 316 316 316 316 316 317 316 314 313 312 311 312 312 312 312 313 312
309 309 309 308 307 307 307 308 309 310 310 310 309 310 311 311 311 312 314 314 315 315 315 316 315 316 316 318 321 325 328 321 318 318 314 314 314 313 314 313 314 315 316 317 317 318 317 317 316 318 319 318 318 317 316 317 316 317 318 318 318 317 316 317 317 317 316 316 316 316 316 316 316 316 316 316 316 314 312 312 311 311 312 312 311 311 311 312
308 308 308 306 306 306 306 306 307 309 309 310 310 310 311 312 312 313 314 315 315 315 316 317 316 318 316 318 325 327 324 323 319 316 314 314 313 313 313 314 314 315 317 318 318 318 317 318 317 317 318 318 317 316 316 316 317 318 318 318 318 317 316 317 317 317 316 316 316 316 316 316 316 316 316 316 314 312 312 311 311 311 311 311 311 311 311 310
308 308 308 307 307 306 306 306 307 307 308 310 310 310 312 312 313 314 315 315 315 316 316 317 317 318 317 320 326 323 322 322 318 316 316 316 316 313 314 316 316 316 318 318 317 317 317 318 318 317 317 318 316 317 316 316 318 317 317 317 317 317 317 317 317 316 316 316 316 316 316 316 316 316 316 316 313 312 311 311 312 312 311 311 310 310 310 309
310 309 309 310 309 307 307 306 307 307 308 310 311 311 312 312 314 314 315 315 316 316 316 317 317 317 320 325 325 321 321 320 319 319 317 317 317 314 315 318 317 317 318 318 318 317 317 317 317 317 317 317 316 317 316 316 316 316 316 316 316 316 316 317 317 316 317 317 316 315 316 316 315 316 317 315 312 312 312 312 312 312 312 311 310 310 309 309
312 311 310 310 311 309 309 309 307 308 309 311 312 312 312 312 314 314 315 316 316 317 317 317 317 317 320 322 320 321 322 319 319 319 317 317 317 316 317 317 317 318 318 318 318 317 317 317 316 316 317 317 316 316 316 315 315 315 316 315 317 317 317 317 317 317 318 316 317 316 316 316 315 315 316 314 312 312 312 312 312 313 312 311 310 310 309 308
313 313 311 311 311 310 310 311 310 310 310 310 311 312 312 312 314 315 316 316 317 318 317 317 317 317 321 321 320 322 322 320 320 318 318 318 317 317 317 317 317 317 317 318 318 317 315 316 316 316 317 316 317 317 316 314 315 315 316 316 318 318 318 318 317 318 318 316 316 315 316 317 315 315 315 313 312 313 313 313 313 313 312 311 310 310 309 307
313 312 312 313 313 313 312 311 311 311 310 310 311 312 312 313 314 315 316 317 318 318 317 317 316 317 321 321 320 320 320 320 320 318 318 317 318 317 316 317 317 316 317 317 318 316 313 315 316 316 316 317 317 316 315 315 315 316 316 317 318 320 321 320 317 318 317 316 314 315 319 321 317 314 313 312 313 314 313 313 313 313 312 312 311 310 309 307
312 312 313 314 314 314 313 313 313 312 311 311 312 312 313 314 316 316 317 318 318 318 317 316 316 319 322 319 318 318 318 319 319 319 318 317 318 318 317 317 316 316 316 316 316 314 313 314 315 316 315 316 316 314 315 316 316 317 319 319 320 321 321 318 317 317 316 316 314 315 320 322 316 313 312 311 313 313 314 314 313 313 312 312 312 310 308 307
312 313 313 314 315 314 313 314 315 313 312 311 312 312 314 316 317 318 318 318 318 317 316 316 316 320 321 318 318 316 316 317 318 319 318 318 319 318 317 316 315 315 314 315 314 313 314 315 316 317 315 315 315 316 319 320 319 318 320 322 323 322 321 317 317 317 317 315 314 315 319 320 316 314 312 312 313 313 314 315 314 313 312 312 311 310 308 306
313 313 314 315 316 315 314 315 315 315 313 312 313 314 315 317 318 319 318 318 319 316 318 321 319 318 319 319 319 316 316 318 319 319 318 318 319 318 316 315 315 315 314 314 313 313 315 315 317 318 316 315 317 319 321 322 323 322 322 322 324 323 322 319 316 317 318 316 314 316 319 321 317 314 313 313 313 313 315 315 314 313 312 312 311 310 309 307
313 314 315 317 316 316 316 316 315 315 314 313 314 316 317 319 318 319 318 318 319 316 318 323 320 318 318 318 318 318 319 319 320 321 318 317 319 318 316 316 315 315 315 315 315 315 315 316 318 319 318 318 319 321 323 325 325 324 323 322 323 324 322 320 318 317 318 317 316 317 318 320 319 315 313 313 313 313 315 315 314 313 313 312 312 310 309 309
313 315 317 317 316 317 317 315 314 314 314 314 315 317 319 319 318 319 319 318 317 319 319 319 319 319 319 318 318 319 320 320 320 320 317 317 317 317 316 317 316 316 316 316 316 316 317 317 318 320 321 320 320 322 325 327 325 324 323 323 323 324 323 323 320 318 317 318 319 319 319 319 320 317 314 313 313 313 314 315 315 314 313 313 312 310 310 309
313 316 317 316 317 317 316 315 315 314 314 316 317 317 318 317 317 319 321 320 319 322 322 319 319 319 319 319 319 319 319 319 319 319 317 316 316 316 317 317 317 316 317 319 319 317 318 320 321 323 324 322 321 321 323 325 324 323 323 323 324 324 323 323 321 317 317 318 319 320 320 320 321 320 316 313 313 314 314 315 315 314 313 312 311 310 310 308
314 316 316 316 316 316 316 316 316 314 315 317 318 319 320 321 323 322 320 320 320 320 320 320 319 318 320 320 318 317 317 317 318 319 317 316 316 316 316 317 318 319 319 322 322 318 319 323 325 325 324 323 322 322 321 322 323 322 323 324 324 324 323 323 322 317 317 320 320 321 322 321 321 322 318 314 314 315 315 316 315 314 313 312 311 310 309 307
314 315 316 316 315 316 316 316 316 314 315 318 319 321 323 322 325 323 320 321 320 319 319 319 318 319 320 319 316 316 317 317 317 319 317 315 316 317 317 317 319 321 321 322 322 319 320 324 325 324 323 323 323 323 322 321 322 322 323 323 324 324 323 323 322 316 316 321 321 321 322 321 321 322 320 315 314 314 314 315 315 314 313 312 311 310 308 306
315 316 316 316 315 317 317 316 315 314 314 317 319 321 322 320 319 318 319 321 321 321 320 319 318 319 319 318 316 317 319 318 317 319 317 315 317 318 318 318 320 322 322 322 323 322 324 324 323 322 323 323 322 321 321 322 323 323 324 324 325 325 324 324 322 317 316 319 321 321 321 321 320 321 321 317 314 315 315 315 316 315 313 312 311 310 307 306
315 316 316 317 317 317 317 316 315 314 315 317 319 320 321 318 315 316 319 320 320 322 321 320 319 319 319 318 317 317 320 320 319 320 317 316 317 318 319 319 320 322 323 323 324 326 326 324 322 322 323 323 322 320 321 321 323 324 324 325 325 324 325 326 322 318 317 318 320 321 320 321 319 320 321 317 314 314 313 314 315 315 313 312 311 309 307 306
316 316 316 318 318 316 316 316 315 315 315 317 318 320 320 318 315 317 321 320 319 321 322 322 321 321 320 319 317 318 319 320 321 320 317 316 317 318 319 319 320 322 323 322 322 325 326 324 322 323 323 322 322 323 323 322 323 326 326 325 325 325 325 326 324 321 319 320 320 320 323 324 321 322 321 316 313 312 311 312 313 313 312 311 310 309 307 307
316 316 317 318 317 317 316 316 316 314 315 317 317 318 319 318 316 317 321 322 321 322 324 324 324 323 321 318 318 318 318 319 321 319 316 316 318 319 319 319 320 322 323 322 322 323 323 323 324 325 324 323 324 324 325 325 324 326 327 325 324 324 325 326 327 326 325 327 322 320 328 331 324 324 323 316 314 313 311 311 311 311 310 309 309 308 307 307
316 316 317 316 317 318 317 316 316 315 316 317 317 317 317 318 317 317 321 324 323 325 326 325 325 324 321 319 318 319 322 320 318 318 316 316 317 318 319 319 320 321 322 322 323 323 322 321 323 325 325 326 326 325 326 326 324 325 329 329 326 325 325 326 326 327 329 330 323 320 329 332 325 324 323 317 315 314 311 311 311 310 309 308 308 307 306 305
317 316 316 316 317 317 316 316 317 316 317 318 317 316 316 316 316 317 323 327 326 327 326 322 323 322 320 320 319 320 324 321 317 316 315 316 316 317 319 320 320 321 320 322 326 325 322 321 324 326 326 328 327 325 325 325 325 327 327 327 327 324 325 326 325 328 329 326 323 322 325 329 327 325 322 318 316 315 312 311 311 310 308 308 308 307 305 304
318 317 317 317 318 318 317 317 318 316 318 319 317 316 316 316 316 319 326 330 329 326 324 320 317 317 318 319 320 320 320 319 320 317 312 313 315 316 319 321 321 321 318 322 328 326 322 323 326 327 326 327 325 324 327 326 326 327 324 324 325 324 324 325 326 328 327 325 327 326 324 328 329 326 322 320 318 318 314 312 311 310 308 308 307 307 305 304
318 318 318 318 318 318 317 318 318 317 318 318 318 317 317 316 317 322 325 328 329 324 321 318 315 316 318 319 320 319 315 315 318 315 312 313 314 314 318 319 320 322 320 321 326 326 322 319 322 325 325 325 324 325 329 329 325 324 323 323 323 323 323 323 325 326 324 326 327 326 325 329 331 328 322 321 321 321 318 314 312 310 309 308 307 306 305 304
318 318 318 318 318 318 317 317 317 318 318 318 318 317 316 317 320 325 327 327 328 324 317 316 317 318 319 320 321 318 315 314 314 313 313 315 314 314 316 317 318 322 323 323 323 321 317 314 317 322 322 321 321 320 322 325 325 323 323 324 322 322 322 322 323 323 324 327 326 325 325 326 331 333 324 321 322 322 320 315 312 310 309 308 307 305 304 303
319 318 318 318 318 318 317 317 317 318 318 318 318 316 318 323 325 328 329 325 323 323 317 316 319 319 320 323 323 319 317 315 313 315 316 316 316 315 317 320 320 322 325 325 323 320 317 317 319 320 318 318 320 319 317 318 321 322 323 324 324 323 322 322 322 322 325 328 325 323 324 324 329 332 323 318 318 318 318 315 311 310 309 307 306 304 303 302
320 320 318 317 318 318 317 317 316 317 318 317 317 318 323 329 328 329 328 323 322 324 320 320 320 320 321 323 324 321 319 318 315 317 318 317 318 317 318 322 322 324 327 325 324 324 322 321 321 320 318 317 321 322 318 316 319 322 324 325 327 326 324 325 325 324 325 325 320 319 324 327 327 325 319 317 316 316 317 314 311 310 308 307 305 304 302 302
321 320 319 318 318 318 317 317 316 316 317 316 317 321 327 328 328 329 327 325 325 323 321 321 320 320 322 323 324 321 320 319 316 317 319 318 319 319 319 321 322 326 328 325 325 327 325 323 322 320 318 318 321 322 321 320 319 321 323 324 327 328 326 327 327 326 327 323 318 318 322 326 325 322 320 317 315 316 316 315 312 310 308 306 305 303 303 302
321 320 320 319 318 318 318 317 316 316 316 316 319 324 326 326 327 328 327 326 323 321 320 321 321 321 322 323 324 321 321 321 317 317 320 320 321 321 320 321 321 324 325 325 326 327 327 328 324 320 320 319 319 320 322 321 318 319 321 322 326 327 328 330 328 329 329 323 317 316 322 327 326 321 317 314 312 313 314 314 312 310 308 307 305 303 303 302
322 320 320 319 318 318 318 317 316 316 315 318 322 325 325 325 326 328 327 325 321 319 320 321 322 323 324 324 322 320 322 323 319 319 321 321 322 322 321 320 321 322 324 325 327 326 327 329 324 320 320 318 318 320 320 320 319 319 320 322 324 325 326 328 326 323 324 322 318 318 323 324 320 316 312 310 311 309 310 313 312 309 308 306 305 303 302 301
321 320 319 319 318 318 318 317 316 316 316 320 323 324 324 325 326 327 327 324 321 320 320 322 323 323 325 325 322 320 322 322 321 321 321 321 321 322 322 322 320 322 323 324 327 327 328 328 322 319 319 317 318 321 321 322 322 320 321 323 323 322 322 325 325 320 320 325 323 320 322 321 317 316 312 310 311 309 309 311 311 309 307 306 304 303 302 301
320 319 318 318 318 318 317 317 316 315 317 322 324 323 323 324 326 327 326 324 321 319 321 323 323 323 324 324 322 321 321 321 321 321 322 322 322 322 322 322 321 321 321 322 325 328 329 326 319 318 320 316 315 319 320 321 322 321 323 323 322 324 322 322 324 324 323 326 324 321 323 323 321 320 315 311 313 312 309 310 310 310 308 306 305 304 303 302
318 318 318 318 318 318 317 316 315 315 318 323 324 323 323 324 325 325 325 323 320 320 322 324 324 322 323 324 323 320 319 321 322 321 322 322 322 323 321 322 322 321 320 321 324 325 326 325 319 317 319 315 313 317 320 319 318 319 321 321 322 326 325 323 323 325 327 326 326 325 324 323 323 321 317 315 315 313 310 309 310 310 309 307 307 305 304 303
319 319 320 319 318 318 317 316 315 316 320 323 322 322 323 323 323 324 323 321 320 322 323 324 325 324 322 323 323 320 318 321 322 321 322 322 322 323 321 322 324 322 320 320 323 322 322 326 322 316 316 315 314 318 321 321 318 316 317 319 320 322 324 324 323 324 327 326 326 328 327 326 324 321 317 317 315 312 310 309 309 309 309 308 307 306 304 304
319 320 321 320 318 318 316 315 315 317 321 323 320 319 321 322 322 323 322 320 321 324 324 325 326 325 324 323 323 321 318 320 321 319 320 322 322 321 320 320 323 323 321 320 322 322 320 323 324 317 315 316 317 318 320 320 319 317 317 320 321 319 320 322 323 322 324 326 327 327 326 326 322 318 316 315 314 312 311 310 310 309 309 309 308 307 305 304
318 321 321 319 318 317 315 315 317 319 321 322 319 319 320 322 323 323 322 321 322 323 324 326 326 325 325 324 323 321 318 320 320 318 318 319 321 322 321 320 322 322 321 320 321 322 320 321 323 318 315 317 318 318 317 319 320 318 317 319 320 320 320 322 324 323 322 325 327 325 326 326 319 315 316 317 317 315 312 311 311 310 310 310 309 308 306 304
319 322 320 317 317 316 315 317 319 319 321 320 319 319 319 321 323 323 322 322 323 322 322 325 326 326 326 325 324 322 320 319 319 318 318 317 319 322 320 319 323 321 319 319 321 321 319 320 322 319 316 317 317 316 315 316 319 320 318 318 320 320 320 322 324 324 323 325 323 322 326 326 318 313 314 318 321 319 315 315 314 312 311 310 311 310 307 305
319 319 316 315 317 316 316 319 319 319 320 319 319 319 320 321 323 323 322 321 322 322 322 323 325 326 326 325 325 324 321 320 319 318 319 318 318 320 317 318 322 320 317 318 319 319 319 319 321 321 319 317 315 315 314 314 317 320 320 320 321 319 319 321 322 322 323 324 324 323 324 323 317 313 312 314 316 315 315 317 316 314 312 311 312 311 309 306
318 316 314 314 315 316 318 320 319 318 319 319 319 320 321 321 322 322 322 321 321 322 321 322 323 324 325 325 325 324 322 322 321 319 320 321 319 315 314 316 319 318 319 321 321 320 320 321 322 322 322 321 318 317 317 316 316 318 319 319 319 319 320 322 320 320 322 325 325 325 324 322 318 314 312 312 313 311 311 313 314 314 314 313 312 311 309 307
318 316 315 313 313 314 318 321 320 319 319 320 320 320 321 322 321 322 322 320 321 321 321 322 323 322 324 325 324 324 323 322 323 321 321 322 320 314 312 315 316 318 321 323 322 320 321 322 322 323 324 324 323 322 320 318 316 316 317 319 319 320 322 321 320 320 322 323 323 322 322 321 316 312 312 313 313 312 310 311 311 312 312 311 311 311 309 307
319 319 317 314 313 313 316 319 320 321 320 320 321 321 321 321 320 320 321 321 321 321 321 323 324 322 323 324 323 324 323 322 323 323 321 322 320 314 310 311 314 317 319 319 320 320 321 321 321 322 323 323 323 322 321 319 317 316 317 318 319 320 321 320 319 320 322 323 322 320 320 319 316 313 314 315 314 313 313 312 311 311 312 311 310 310 309 307
317 320 318 316 315 314 315 316 319 320 320 319 319 320 320 320 320 319 320 321 320 320 321 322 322 322 323 322 322 323 323 322 322 322 320 320 318 311 308 309 312 313 315 316 318 320 320 319 319 320 320 320 321 320 320 319 317 316 317 318 318 319 320 321 319 320 322 323 321 319 320 320 318 315 315 317 316 315 315 313 311 312 312 311 310 309 309 307
314 317 316 315 317 318 316 316 317 319 319 318 318 318 319 318 319 320 320 320 320 320 320 321 320 321 322 322 322 322 323 322 322 321 320 320 317 312 309 310 311 311 313 314 315 318 319 318 318 318 317 319 320 319 320 320 319 317 316 317 317 318 319 320 319 320 322 321 319 320 322 321 318 314 316 319 317 314 314 314 312 311 311 310 310 310 309 308
309 312 311 311 315 317 316 316 316 318 319 319 318 319 319 318 319 319 319 320 321 320 320 320 320 320 320 320 321 321 322 322 322 320 319 319 317 315 313 314 312 310 312 314 313 315 318 317 317 318 317 319 321 320 319 319 320 320 318 317 317 317 317 318 318 318 319 320 318 319 321 321 318 316 316 318 317 314 314 315 313 313 312 311 310 310 309 308
308 309 310 310 312 313 314 316 316 317 318 319 319 319 319 319 319 319 319 319 320 320 319 320 320 319 319 319 320 321 321 321 322 320 319 318 316 315 315 317 316 311 310 313 313 314 316 317 317 318 318 318 319 320 318 317 318 319 320 319 318 318 318 317 317 317 317 318 317 317 318 318 316 316 316 316 316 314 313 314 313 312 313 312 310 310 309 307
302 302 305 309 311 311 313 315 316 318 318 318 319 319 319 319 319 319 319 318 318 319 319 319 320 320 318 318 320 321 319 319 321 320 318 318 317 316 316 317 316 312 310 312 313 313 315 316 316 317 319 319 318 318 317 315 315 316 318 319 318 317 318 317 317 316 316 316 316 316 317 316 315 316 315 314 316 316 314 315 314 313 313 312 311 311 310 307
301 300 303 307 309 310 311 313 315 318 318 317 318 318 319 319 319 320 320 318 317 318 318 318 319 319 319 319 319 320 320 320 320 318 316 317 317 316 316 314 313 313 312 312 313 313 314 314 315 317 319 319 317 316 315 314 316 317 318 318 316 316 317 317 317 317 316 316 316 316 316 315 313 313 313 314 316 316 315 315 314 313 315 314 313 312 310 308
Wind_Speed
3 3 3 4 5 5 5 5 5 4 4 5 5 5 5 5 4 3 2 2 2 1 1 2 3 4 5 6 7 8 9 7 3 3 3 2 2 4 4 2 2 3 4 5 5 5 5 3 1 3 3 2 1 1 1 2 1 1 1 1 2 2 3 3 4 3 3 5 4 3 3 4 1 2 1 1 3 4 4 3 6 10 9 10 9 8 8 9
3 3 3 4 5 5 5 5 5 5 4 4 4 4 4 4 3 3 2 2 2 1 2 3 4 5 5 6 7 8 9 7 3 6 6 3 3 6 4 3 4 4 5 6 7 7 6 2 2 4 3 1 0 0 1 1 1 1 2 1 2 3 3 3 5 5 2 4 5 4 3 3 2 3 1 1 3 3 4 3 8 9 8 10 10 10 10 12
3 3 4 4 5 5 5 5 5 5 4 3 3 3 3 3 3 3 2 2 1 1 2 3 4 4 5 6 7 9 10 5 2 4 5 5 7 7 6 6 6 5 5 7 8 7 7 5 4 5 2 0 0 0 1 1 1 1 2 2 3 3 4 4 5 6 5 4 3 3 4 2 1 2 1 2 5 3 2 1 6 7 6 6 8 10 11 13
3 4 4 5 5 5 5 4 4 5 4 3 3 3 3 3 3 3 2 2 1 1 2 3 4 4 5 6 7 10 8 3 1 3 5 7 7 8 8 7 7 5 6 6 6 5 6 5 4 4 3 1 2 1 1 1 2 2 1 1 3 1 3 4 4 6 5 5 3 2 2 2 1 1 1 2 5 3 2 4 5 5 5 5 6 8 11 12
3 4 4 4 4 4 4 4 4 4 4 4 3 4 4 4 3 3 2 2 2 2 2 3 3 3 4 5 7 9 6 1 2 4 7 7 7 7 7 6 6 5 6 4 4 5 6 6 4 3 2 1 3 1 1 3 1 2 1 4 4 3 2 4 5 6 4 3 2 1 0 1 2 1 2 3 4 1 3 4 5 6 5 5 5 7 9 10
4 4 4 4 4 4 4 4 4 4 4 4 4 4 4 5 4 3 3 2 2 2 3 3 3 3 4 5 7 7 4 0 4 7 7 6 6 6 5 5 5 5 5 3 5 5 5 3 3 2 2 2 1 2 2 2 1 2 1 4 4 3 2 3 5 4 2 1 2 2 0 1 1 3 5 5 3 3 5 5 6 6 6 6 7 7 7 8
5 4 4 5 6 6 5 5 5 4 4 4 4 5 4 5 4 3 2 2 3 3 3 3 3 4 4 5 6 4 2 1 4 8 7 6 5 5 3 3 3 5 4 4 5 4 3 3 3 2 2 3 2 3 2 0 1 2 1 3 4 3 2 2 5 4 3 3 3 1 2 1 4 4 2 3 4 7 6 6 8 8 8 8 7 6 7 7
6 5 4 5 6 6 7 7 6 5 5 4 4 5 4 4 4 3 2 3 3 3 3 3 3 4 5 5 4 2 2 1 4 7 7 5 4 3 2 1 2 4 4 4 5 5 4 4 3 3 3 2 3 1 1 1 3 3 1 2 3 0 2 2 5 5 4 4 4 2 2 5 7 2 1 4 7 7 6 7 8 7 7 7 6 6 6 7
6 5 3 4 6 6 7 7 7 7 5 4 4 4 5 4 4 3 3 3 3 3 3 3 3 4 5 5 3 3 1 3 5 6 5 4 3 3 2 1 2 3 3 2 4 5 2 3 4 4 4 3 2 2 2 1 1 1 3 3 1 1 3 4 5 6 5 4 4 4 6 7 4 2 1 4 8 6 6 7 6 6 5 5 5 5 7 7
6 5 4 4 5 6 7 7 7 7 6 5 5 5 5 4 4 3 3 3 2 3 3 3 3 3 4 4 3 2 2 6 6 5 4 4 4 3 2 1 1 3 4 1 2 4 3 4 4 3 3 2 1 2 2 1 1 2 4 4 5 5 5 4 5 6 6 4 5 5 6 5 2 2 2 4 7 6 7 6 5 6 5 5 5 5 7 8
7 7 6 5 4 5 6 6 7 7 6 6 5 5 6 4 3 3 3 2 2 2 2 3 2 3 4 4 3 2 3 6 5 5 5 5 6 5 3 2 2 2 4 2 1 3 5 6 5 3 2 2 2 1 2 2 2 2 4 5 7 7 7 6 7 6 5 3 4 5 6 5 3 1 2 6 6 6 7 6 5 5 5 6 5 5 6 8
9 8 7 6 5 6 6 6 6 7 7 6 6 6 5 4 3 3 3 2 2 1 2 2 1 3 4 3 3 3 6 7 6 6 6 6 6 5 3 1 1 1 2 4 2 2 3 5 5 4 1 2 2 1 1 2 2 2 2 4 6 7 7 9 9 6 5 2 3 3 4 6 5 3 4 8 6 6 6 6 6 5 5 5 5 5 5 8
10 8 7 6 5 6 7 6 6 7 7 7 6 5 4 4 3 3 2 2 1 1 1 1 1 1 3 3 2 6 8 8 7 6 6 6 4 2 1 1 2 2 1 2 3 2 2 1 3 3 2 2 2 1 1 1 0 3 3 3 4 6 5 6 6 6 6 4 4 4 2 4 5 6 6 7 6 6 6 6 6 5 5 5 5 5 5 7
11 9 8 6 4 6 7 7 7 7 7 7 6 6 4 3 3 3 2 2 1 1 1 1 1 1 1 1 2 6 8 7 6 6 6 5 2 1 2 1 0 1 2 1 1 1 2 2 2 2 1 1 0 1 2 2 2 3 3 2 2 2 2 1 5 8 5 1 3 5 2 3 5 6 6 6 6 7 6 6 6 5 5 4 5 5 5 6
11 10 9 6 5 6 8 8 9 8 7 7 7 6 4 2 2 2 2 2 1 1 1 1 3 1 2 2 2 4 6 5 5 7 7 5 2 1 3 3 3 3 3 2 3 3 3 1 1 1 1 1 1 1 3 2 3 3 2 3 2 2 2 2 4 7 4 1 4 5 2 2 4 5 6 6 7 7 6 6 7 5 6 5 5 5 5 6
12 11 9 8 7 8 8 9 10 9 8 6 5 4 2 1 1 2 2 2 2 2 1 1 3 3 3 2 2 2 4 4 6 8 8 7 4 3 7 6 5 4 3 4 3 4 3 1 0 1 1 1 2 3 2 3 3 3 4 3 3 3 3 3 2 3 2 2 5 5 3 2 3 6 6 6 7 7 6 7 7 6 6 5 5 5 5 5
14 12 10 9 10 9 8 10 11 8 6 5 3 2 1 1 1 1 1 2 3 3 2 3 2 3 2 2 3 2 4 5 8 8 7 8 6 5 8 5 5 5 4 4 3 3 2 1 1 1 1 2 3 3 2 3 4 3 4 3 5 5 4 2 0 3 3 3 3 5 5 4 3 7 7 7 9 8 7 7 8 6 5 5 5 5 5 5
15 13 11 10 11 11 9 9 9 6 4 3 2 1 2 1 2 2 2 2 3 2 3 4 3 2 2 3 3 3 6 8 9 7 7 10 8 7 7 4 5 7 5 3 2 3 2 1 2 1 2 3 3 4 3 4 5 3 1 2 3 4 4 3 1 4 5 2 3 4 5 7 5 6 8 8 9 8 7 6 7 7 6 5 5 5 5 5
16 15 13 11 12 11 8 7 6 4 2 2 3 4 3 2 1 2 3 3 3 2 2 3 5 1 1 4 5 6 8 10 8 6 7 10 8 7 6 3 5 5 3 2 2 4 2 1 2 2 3 5 5 6 6 6 6 5 2 1 3 3 4 5 1 4 4 2 4 6 5 7 7 5 7 8 8 7 7 5 6 6 6 6 5 5 5 5
18 16 13 12 12 9 8 7 5 3 4 4 4 2 1 1 1 2 4 5 7 6 3 5 9 3 1 5 7 8 9 8 4 4 8 10 9 8 5 3 4 2 2 3 4 2 2 3 3 4 5 6 7 9 9 9 8 5 2 2 4 4 4 6 2 4 3 1 4 5 5 7 8 8 6 9 7 6 7 5 6 5 5 6 5 5 5 5
19 17 15 13 11 10 12 8 4 4 6 5 2 3 0 0 2 1 3 7 12 14 10 6 9 5 2 7 11 12 6 2 1 4 10 10 10 8 5 5 4 2 5 5 3 2 1 4 6 6 7 8 6 5 6 8 8 6 2 3 5 3 5 6 2 4 3 1 3 4 6 9 8 8 4 8 8 7 8 7 6 6 6 5 5 6 5 5
19 18 16 14 12 12 12 8 4 5 7 5 5 6 3 2 1 2 0 3 8 15 13 10 9 5 3 8 13 10 2 2 3 5 10 10 8 6 5 6 5 4 6 5 3 2 2 6 8 8 7 8 5 2 2 3 3 4 2 3 4 3 4 6 1 4 3 1 3 4 6 8 8 10 7 8 8 4 2 4 4 6 7 5 5 6 5 5
20 18 16 16 15 11 11 8 5 6 8 7 8 7 4 2 2 3 1 3 4 10 11 10 11 8 6 7 11 10 4 6 6 6 13 11 5 4 5 7 6 5 6 6 5 4 5 5 7 11 8 6 5 2 0 3 3 3 3 3 4 3 3 3 1 3 4 2 3 5 6 7 10 11 6 2 5 4 5 6 5 4 5 5 5 5 5 6
22 20 17 17 15 11 11 9 5 8 11 9 12 11 4 2 1 2 1 3 4 6 8 10 10 9 9 6 11 12 6 7 6 7 16 14 5 3 4 7 7 6 6 8 9 8 9 4 2 7 8 6 5 4 3 3 3 5 6 6 4 4 5 4 2 0 2 2 4 4 5 6 8 8 3 3 4 4 3 5 4 3 4 5 5 5 4 5
22 21 19 16 14 14 15 9 6 10 11 10 15 15 10 4 1 0 1 2 5 2 1 5 4 5 7 8 12 11 4 7 5 6 18 15 7 5 3 4 5 7 8 9 10 9 11 5 2 4 6 5 5 5 5 6 4 4 6 7 8 7 5 4 4 4 3 3 2 1 2 4 2 4 6 3 3 4 4 4 5 4 4 4 4 5 4 5
23 21 20 19 18 19 15 7 8 11 10 11 13 11 12 7 3 2 0 2 6 2 2 3 4 5 7 9 11 5 0 5 1 8 18 12 5 4 3 4 3 5 7 7 7 4 3 3 5 6 6 5 5 5 5 7 4 4 4 1 3 4 1 2 3 2 1 3 2 2 2 3 3 2 4 5 5 5 4 5 6 6 5 5 5 5 5 4
25 23 23 22 21 21 14 3 10 14 6 10 11 10 14 12 6 4 1 2 6 4 5 2 2 4 6 9 11 6 1 3 4 5 8 5 3 2 2 6 4 3 3 2 4 2 4 6 4 5 6 5 6 5 5 7 4 3 3 3 4 4 3 2 3 3 3 2 2 4 3 3 5 5 6 8 7 5 5 6 7 7 6 6 5 6 7 6
27 26 26 25 25 25 14 5 13 15 5 4 9 13 15 13 9 3 2 2 3 3 4 1 1 2 3 4 7 5 1 2 4 0 2 1 2 2 3 8 6 6 4 4 5 1 2 7 7 7 7 5 5 4 5 8 5 2 1 3 5 4 1 2 3 4 3 3 3 5 4 2 5 5 5 8 7 6 8 9 9 8 7 7 7 6 7 7
28 27 28 27 27 27 18 8 11 14 10 6 11 16 16 13 8 1 1 3 2 3 2 2 3 2 3 3 3 4 2 1 1 0 2 0 1 1 3 6 4 6 7 9 8 1 1 3 4 6 6 5 3 2 1 4 5 3 3 5 5 3 2 0 2 2 3 4 5 6 5 3 4 4 5 5 5 7 7 8 8 8 8 8 7 7 7 6
31 29 29 27 27 28 24 17 14 14 13 10 13 18 15 8 4 2 3 4 1 2 2 2 3 4 7 7 3 4 3 1 2 2 2 2 1 1 1 1 3 4 3 6 6 1 2 1 0 2 2 2 5 5 5 3 5 5 4 5 4 1 2 1 1 1 1 5 6 9 9 6 3 5 5 4 3 5 6 5 7 8 8 8 7 7 7 6
34 32 32 30 30 30 23 17 21 20 14 13 17 18 11 2 1 4 6 2 2 2 3 2 4 8 11 11 6 6 5 3 4 6 4 3 3 2 2 1 1 1 1 3 3 1 2 1 1 0 1 4 6 4 4 4 4 5 4 4 3 1 2 2 1 1 2 5 4 6 9 9 5 5 2 3 3 7 7 7 9 10 9 8 7 7 7 6
37 36 36 35 33 32 24 19 26 24 16 17 19 12 5 2 2 7 5 1 1 3 5 5 6 8 11 10 6 7 7 5 6 7 5 5 5 5 6 6 5 4 2 4 3 2 3 4 3 1 1 3 5 4 3 4 1 3 4 5 4 1 0 1 2 3 4 5 3 2 3 6 6 5 4 5 4 5 6 7 10 11 10 9 8 8 7 6
40 38 39 39 36 36 32 26 26 25 20 20 16 4 3 5 7 10 8 3 1 1 4 6 8 9 9 8 4 7 6 4 7 7 5 6 5 6 8 7 7 5 2 5 6 2 2 4 6 3 2 4 8 6 3 1 3 6 6 6 5 4 2 3 4 3 4 4 3 3 2 1 3 5 5 6 5 4 5 7 9 10 10 9 8 8 7 7
42 41 41 42 41 39 36 29 25 28 26 20 11 3 5 7 8 8 10 8 1 2 3 5 8 9 8 6 4 7 5 3 8 8 5 7 5 6 7 9 11 7 1 3 4 5 4 4 6 8 3 7 11 9 7 6 6 8 6 5 5 4 3 4 4 3 3 1 2 3 0 3 3 2 1 5 5 4 5 6 8 8 8 8 7 7 7 7
41 44 43 41 42 40 38 32 27 30 26 14 6 7 9 9 7 5 8 8 3 3 4 5 7 8 6 4 4 7 3 2 9 7 6 8 6 7 8 8 12 9 4 4 2 5 7 5 4 6 3 10 12 6 6 7 4 5 4 4 5 3 2 2 2 2 2 2 1 2 2 4 4 1 3 5 5 4 4 5 8 9 8 8 7 7 7 7
42 42 38 36 39 40 40 34 31 34 26 10 6 9 9 8 5 4 6 7 7 7 8 5 5 5 5 3 3 6 0 2 8 7 4 6 6 7 8 7 12 13 9 7 3 4 6 3 0 2 2 5 7 3 4 5 3 3 4 5 4 1 2 1 1 1 2 1 2 4 3 3 1 1 1 5 4 3 2 4 7 9 9 9 7 7 7 7
36 32 27 29 35 38 39 36 36 35 20 8 10 9 7 6 4 5 4 5 7 10 8 5 5 5 6 4 4 7 2 1 6 6 3 4 5 8 11 8 12 16 14 9 4 2 5 1 2 1 1 1 1 1 1 2 3 4 4 4 2 3 2 1 1 1 1 3 3 5 6 4 3 3 1 5 5 5 5 5 6 7 9 9 7 7 7 7
27 20 16 26 37 38 39 39 38 27 9 5 11 10 5 5 5 5 4 5 8 10 7 6 6 6 6 6 5 8 7 3 6 5 3 4 3 8 13 9 9 16 16 10 4 2 3 2 3 1 2 0 2 1 0 2 2 3 2 2 3 1 2 3 3 2 3 4 3 4 6 5 5 5 5 7 9 9 8 7 7 8 9 8 7 8 8 8
20 10 6 22 38 41 41 42 32 16 5 7 11 8 5 5 5 6 6 6 6 7 7 6 5 4 5 5 5 7 8 6 7 5 3 5 3 4 10 8 6 11 14 12 6 1 1 3 3 3 1 2 1 1 5 4 1 1 3 2 1 1 2 3 3 2 3 3 3 2 3 4 5 6 10 12 11 11 11 9 10 10 10 8 8 8 9 9
12 4 2 16 36 44 45 36 18 6 6 9 9 7 6 5 5 6 8 8 5 3 5 6 6 5 5 6 5 6 7 6 6 5 2 4 3 2 4 6 5 6 9 12 9 2 1 2 2 2 2 3 2 4 9 9 7 4 2 2 3 1 1 0 2 2 3 2 2 2 2 3 4 3 10 13 10 11 13 12 10 10 9 8 8 8 9 9
5 3 1 17 38 45 38 21 7 6 7 7 9 9 7 5 5 7 9 9 5 0 1 5 8 7 5 6 5 5 5 5 6 5 3 5 5 3 2 2 5 6 5 6 6 2 1 2 3 1 2 3 2 3 5 6 7 7 6 6 6 4 3 1 3 3 2 2 3 2 3 4 3 3 3 7 7 8 12 12 9 8 9 9 8 9 10 10
2 3 1 20 44 44 25 9 6 7 7 8 7 6 7 5 5 9 9 7 5 2 1 2 7 8 6 7 6 6 6 5 7 7 5 7 8 5 2 1 3 7 6 3 4 2 2 1 2 2 2 3 2 1 2 2 2 4 5 5 6 5 5 5 5 3 1 1 2 2 2 5 3 4 4 3 4 2 5 9 9 7 9 9 8 9 9 9
2 2 1 18 45 40 15 6 8 6 7 7 4 3 6 6 6 8 9 8 7 5 3 3 5 7 7 6 7 7 7 5 8 8 5 6 7 2 1 2 4 7 6 3 3 2 2 2 2 0 1 2 2 1 1 1 1 2 4 6 6 7 7 5 4 3 3 3 3 2 3 5 2 3 3 3 5 5 3 7 9 7 7 8 8 8 8 8
1 2 2 13 37 32 11 6 9 8 8 7 6 7 7 6 8 10 10 11 9 6 6 6 6 7 5 4 6 8 8 6 7 8 6 5 4 0 1 4 5 6 5 2 3 4 3 3 4 2 1 2 2 2 3 3 3 3 4 6 8 8 7 4 1 2 3 5 7 5 5 5 1 3 3 4 5 3 3 5 7 8 6 6 7 7 7 8
2 2 1 7 19 17 7 4 7 9 9 8 10 11 9 5 6 9 11 12 9 6 7 5 4 6 3 3 5 7 9 7 5 5 5 4 3 1 1 2 4 4 4 1 3 5 4 4 5 6 7 8 6 5 5 4 3 2 5 8 9 10 10 6 3 3 5 5 8 6 5 3 1 3 2 2 2 2 4 4 4 6 7 7 7 6 7 8
2 3 1 2 4 5 3 2 4 6 8 9 8 9 11 8 3 3 8 10 8 7 5 1 3 5 3 5 7 6 8 8 5 4 5 5 3 1 1 0 0 2 4 4 3 3 3 3 6 10 12 10 5 4 2 5 6 6 9 11 12 12 11 7 5 7 5 4 6 8 5 3 4 2 2 3 4 5 6 7 5 5 6 7 7 7 7 7
2 3 3 3 2 3 3 3 5 7 9 10 6 5 11 10 3 3 6 7 8 9 5 2 4 7 7 9 9 7 8 8 6 7 7 5 3 2 1 1 1 1 4 4 2 3 4 4 10 13 14 8 2 4 3 4 10 12 12 13 13 11 11 10 9 8 6 5 9 7 8 7 10 7 8 7 7 7 6 7 7 6 7 6 6 7 7 7
1 2 1 1 1 4 6 6 8 8 9 10 7 5 10 12 9 7 6 4 6 9 7 3 7 13 13 13 10 7 7 8 8 10 8 5 4 3 2 1 1 3 4 3 3 3 4 7 10 12 13 9 3 4 4 0 5 9 12 15 14 13 15 15 13 9 7 7 11 6 10 11 10 7 10 10 8 7 7 7 7 7 7 6 7 7 8 8
1 1 1 2 1 3 5 8 9 9 10 11 8 9 12 15 15 12 7 5 6 10 11 9 13 17 15 12 9 7 8 9 10 10 8 6 5 4 3 2 3 4 4 4 4 2 3 6 8 9 11 11 7 5 2 2 2 4 8 12 13 15 15 13 12 12 9 9 12 6 5 10 7 6 10 10 7 6 5 6 6 7 7 7 8 8 8 9
1 2 1 1 1 1 2 4 9 9 9 9 9 10 12 15 17 12 8 8 8 8 12 15 16 15 13 12 10 11 14 15 13 11 10 9 7 6 5 4 4 4 4 4 3 2 3 5 5 6 8 10 9 6 3 2 2 3 5 7 9 10 11 11 12 11 8 9 11 6 5 11 6 6 7 6 5 4 4 5 7 7 7 8 8 8 9 9
1 2 1 1 2 2 0 1 6 8 8 7 7 9 11 14 15 12 8 11 13 11 13 20 18 10 10 13 15 18 19 15 12 9 10 11 8 6 6 5 7 8 6 6 4 4 5 2 2 5 6 7 9 8 5 2 0 3 9 13 11 6 6 8 8 8 9 11 10 5 7 11 4 7 5 4 6 6 5 6 6 6 7 8 9 9 10 10
1 2 1 1 2 2 2 0 3 7 7 7 10 10 9 10 11 11 7 7 11 10 9 17 18 8 8 16 21 20 14 9 6 4 6 6 4 5 4 4 7 9 9 7 4 4 6 4 3 5 5 3 5 8 8 5 1 4 10 13 11 7 6 7 6 7 10 9 7 7 10 10 1 7 5 5 5 7 7 6 6 6 7 8 9 10 10 10
Wind_Direction
192 195 192 189 187 189 186 185 189 184 187 189 189 190 192 198 199 196 187 192 221 260 293 337 338 338 341 335 337 330 338 339 314 12 39 343 336 168 149 83 93 63 51 33 7 335 296 230 196 308 268 250 336 350 306 308 18 335 308 259 294 63 73 335 39 80 157 133 128 126 32 343 103 121 109 131 235 219 234 194 96 70 78 92 91 74 59 52
199 196 193 193 191 193 193 193 195 191 191 193 191 189 192 198 203 203 188 207 230 275 310 343 336 340 336 330 336 327 341 336 298 55 53 36 91 143 137 106 95 72 55 21 355 335 320 353 17 303 270 221 262 316 265 310 38 308 317 341 22 53 60 17 50 57 47 98 113 118 62 348 35 59 62 300 267 224 251 214 109 93 98 94 77 63 57 53
208 204 198 196 195 196 199 200 198 194 195 203 200 188 191 205 212 207 199 217 226 288 322 341 333 340 333 331 334 329 343 327 263 75 73 85 101 118 112 102 83 67 54 20 350 338 331 337 333 297 285 233 163 193 227 332 336 34 9 13 58 75 83 51 57 68 36 49 92 108 78 345 332 62 70 344 310 293 305 31 99 107 102 84 66 57 55 55
213 215 208 200 198 199 203 203 197 194 199 208 211 208 209 216 220 216 211 222 242 297 324 331 332 336 329 332 331 332 339 306 227 112 123 110 107 110 105 95 76 62 50 21 333 331 318 298 300 297 298 228 149 185 187 60 355 4 17 87 80 23 82 73 62 77 51 22 17 56 76 289 313 54 352 350 311 292 86 52 67 86 77 71 69 61 58 58
217 223 219 211 204 203 205 204 199 194 204 213 218 221 222 228 227 221 224 240 262 291 318 316 327 325 326 330 327 335 336 287 131 146 145 131 126 117 107 93 77 58 51 22 326 326 300 280 288 289 274 208 152 162 73 67 18 312 48 88 78 2 56 99 80 76 76 40 359 272 210 272 57 35 246 227 255 252 92 74 73 80 75 71 72 71 67 61
219 225 227 230 222 213 210 211 205 205 215 219 226 229 228 235 233 229 238 252 265 285 304 307 322 321 328 322 320 330 327 333 157 170 156 147 147 135 119 94 71 44 40 346 313 306 292 282 273 274 278 278 96 85 77 77 25 307 65 86 69 39 51 107 105 98 111 157 217 218 316 39 349 281 242 217 212 111 89 83 85 83 85 83 75 71 69 63
219 222 230 235 232 221 219 219 211 216 226 226 234 236 236 242 240 242 247 257 271 283 295 308 322 326 332 320 321 311 262 46 153 174 166 165 160 150 139 92 56 36 15 316 308 306 318 298 281 338 312 292 18 63 67 341 205 247 254 110 83 47 2 81 114 140 176 225 233 259 21 278 261 275 243 186 112 100 100 90 91 88 87 86 78 74 72 69
217 224 238 246 246 235 231 230 224 225 227 235 243 236 241 249 252 260 263 269 278 285 298 317 327 339 341 326 329 286 241 83 149 170 169 173 168 169 152 74 24 28 356 324 328 333 347 308 312 10 326 343 13 22 79 308 223 217 332 82 93 63 244 143 133 166 190 223 243 263 259 244 243 238 113 131 109 105 110 97 96 96 92 86 78 77 76 70
218 225 241 266 264 250 242 238 235 232 228 239 251 248 249 251 261 272 276 284 291 303 313 327 329 343 343 328 315 297 259 124 150 163 169 184 188 179 143 76 14 353 322 337 330 314 335 341 3 18 340 5 5 347 91 44 277 278 8 6 331 251 227 183 177 195 204 214 204 216 242 250 240 151 107 115 114 115 114 108 111 112 104 93 85 77 75 73
223 227 232 264 270 265 256 243 238 235 230 237 247 257 258 256 267 270 279 295 306 320 324 330 331 345 344 322 282 282 132 135 146 153 171 185 167 147 132 133 94 317 306 2 335 315 348 7 5 20 3 331 319 17 68 69 286 332 358 330 296 275 261 207 204 220 213 208 188 204 252 253 155 156 222 110 118 130 120 120 134 127 115 105 99 82 74 77
233 234 233 243 255 266 264 249 244 236 232 238 247 256 258 261 270 269 279 296 309 323 328 338 329 320 328 306 275 267 155 146 145 149 162 167 154 143 147 159 124 2 330 318 340 3 6 8 347 343 44 344 318 99 70 13 303 344 356 308 278 260 250 221 221 231 209 203 197 207 264 252 153 181 197 127 137 148 130 132 147 134 118 114 109 97 82 79
236 237 231 235 256 268 264 257 251 243 239 241 247 258 264 267 263 261 268 274 298 314 322 337 315 319 320 278 256 205 169 157 152 158 161 157 154 153 159 155 118 79 346 329 46 74 346 9 347 304 28 355 311 163 110 357 315 332 326 286 286 276 253 222 206 200 185 182 189 172 282 254 192 154 122 127 152 156 140 142 147 136 122 122 115 106 90 81
230 225 216 227 270 287 282 274 257 248 245 244 251 260 265 266 258 254 258 263 281 283 300 312 267 333 323 273 195 169 169 164 163 164 166 161 150 154 231 294 273 221 242 336 53 101 237 44 352 308 28 352 308 175 243 215 196 288 259 229 286 296 268 218 172 153 155 159 161 135 312 268 167 138 127 138 161 159 156 153 150 145 131 131 122 112 96 83
226 212 203 219 264 291 294 294 281 265 251 248 252 255 260 266 256 253 253 252 241 238 227 202 237 273 291 260 158 170 176 171 167 165 173 167 133 17 357 342 218 201 197 177 129 155 177 140 333 315 66 2 310 148 260 216 184 262 279 221 223 284 280 107 120 145 151 173 168 145 269 272 126 133 149 158 169 169 173 162 154 151 138 135 130 123 112 95
222 209 206 220 251 282 291 299 299 285 265 256 254 258 265 254 253 258 246 235 214 205 192 220 229 232 278 249 166 176 183 180 168 174 186 163 153 174 122 118 109 114 137 143 168 150 134 155 299 302 110 102 185 220 273 247 206 208 249 267 221 197 215 131 132 165 161 278 189 164 243 243 139 156 166 165 176 187 186 162 154 155 147 148 141 129 120 112
215 205 206 219 241 270 284 295 300 290 272 261 256 264 255 233 265 248 229 218 201 179 150 262 218 219 294 243 156 169 180 183 176 186 199 170 167 159 132 129 117 116 121 119 144 143 139 226 308 341 170 181 211 210 265 269 251 206 189 258 255 216 215 153 145 237 178 135 183 194 260 296 146 166 172 173 184 197 196 166 157 157 151 147 137 128 126 127
209 201 205 219 234 248 268 287 298 291 264 241 243 255 189 158 176 206 212 188 180 179 215 307 273 213 258 172 175 201 160 159 172 185 203 178 163 140 140 145 135 132 121 115 138 157 177 212 130 347 215 217 230 194 221 254 253 229 179 218 253 243 241 205 215 267 206 166 208 211 228 265 208 171 176 188 190 193 200 178 158 154 150 138 128 133 134 127
208 203 209 219 228 234 253 281 300 294 246 212 217 167 120 137 171 158 126 151 142 135 265 290 284 240 230 186 164 125 124 140 158 165 178 173 159 153 163 162 146 150 143 135 181 180 185 171 149 263 228 208 225 197 187 207 237 274 217 211 265 270 252 248 181 174 182 186 248 230 225 253 248 191 178 192 196 193 207 186 151 152 148 139 135 137 129 115
209 209 215 221 226 230 245 271 298 292 200 117 94 102 93 89 208 195 180 185 162 172 264 202 197 224 119 157 124 90 110 133 145 151 166 166 153 162 182 168 159 174 165 155 199 188 173 122 140 244 227 205 208 207 210 224 253 298 332 296 303 309 279 287 325 162 169 177 228 239 242 255 270 245 186 184 197 198 208 173 140 154 143 139 143 135 132 117
211 210 213 218 220 223 232 248 288 268 162 113 87 102 101 150 232 202 192 212 217 238 287 170 191 228 110 131 117 111 116 127 140 147 157 160 152 157 182 184 167 211 226 174 171 174 159 173 196 212 218 222 217 216 223 238 259 284 334 296 280 285 278 293 308 161 144 109 228 246 266 266 270 263 206 172 184 203 205 166 145 158 140 144 147 135 133 113
213 211 212 213 215 226 226 227 269 231 174 139 150 210 273 184 217 143 175 220 228 239 262 232 214 234 150 132 142 144 128 136 200 150 160 166 164 161 174 187 165 199 228 199 145 66 110 207 221 216 221 238 241 235 230 235 255 272 283 279 276 270 262 276 269 148 128 115 247 267 278 273 268 270 231 162 171 205 201 176 167 162 139 143 144 137 125 109
214 214 211 206 212 227 222 220 254 215 179 166 205 232 306 352 107 62 102 245 232 225 238 251 246 243 154 145 161 167 157 186 162 155 172 173 181 184 171 180 186 198 206 190 128 91 227 231 229 224 235 245 243 11 339 272 278 285 292 276 266 265 272 281 255 125 114 165 272 299 286 278 275 269 248 175 168 182 158 131 142 149 143 150 147 138 130 125
214 209 206 211 213 216 216 226 242 201 189 199 211 226 290 313 109 69 241 280 264 216 213 224 231 224 190 162 171 180 191 191 182 181 182 177 185 199 174 178 203 215 200 188 176 189 219 225 224 221 231 238 217 156 358 304 294 246 241 250 249 245 245 265 251 148 145 185 250 294 292 277 266 259 256 145 126 90 66 71 60 84 123 139 135 131 143 149
213 204 209 218 209 203 210 214 213 206 208 219 225 220 221 255 169 63 267 272 263 219 199 201 211 216 202 170 171 184 203 210 205 180 179 180 163 158 192 189 202 219 211 202 201 223 236 237 242 212 200 199 213 217 200 227 260 228 217 222 232 242 228 235 286 235 178 215 221 253 289 277 252 228 205 65 93 106 101 101 77 66 91 97 104 109 122 137
211 208 212 212 209 211 204 195 201 210 208 224 238 225 205 211 233 47 337 272 249 248 206 194 196 217 194 152 162 177 202 220 226 163 175 185 164 140 195 194 204 222 215 210 210 236 246 230 129 167 170 169 202 227 189 187 244 247 224 217 215 234 261 299 342 8 351 310 239 164 303 286 277 170 170 153 144 151 145 152 162 159 134 127 139 128 106 110
208 209 207 205 215 210 190 194 212 195 198 227 240 220 200 198 170 169 115 299 257 229 98 176 174 185 172 151 155 134 150 227 290 142 170 188 186 156 200 185 197 229 215 215 218 239 238 165 134 150 156 160 195 228 186 174 215 253 265 288 190 188 78 355 337 11 272 280 260 136 177 260 332 353 184 169 179 177 164 191 190 172 168 176 175 155 140 138
208 206 203 205 211 194 169 183 190 168 184 234 228 207 198 192 181 191 143 306 267 169 128 194 192 170 156 155 158 125 124 187 83 114 163 187 195 133 216 190 179 223 222 223 227 223 129 143 144 150 159 175 200 225 194 174 186 235 270 19 74 109 117 206 230 221 230 294 278 186 174 261 288 274 219 170 171 185 187 208 198 177 179 182 176 160 157 162
214 211 207 208 208 196 178 143 164 169 195 209 192 196 191 184 188 192 120 253 271 114 116 193 71 88 114 143 164 148 138 142 121 95 28 61 201 74 213 211 194 190 193 208 221 281 118 164 166 165 181 203 205 218 201 185 186 210 203 83 84 98 109 220 211 227 257 304 265 203 166 248 268 256 201 158 170 205 207 205 196 181 178 176 172 161 155 155
216 215 215 212 208 206 204 189 175 190 210 182 175 184 177 178 191 111 72 221 228 92 100 141 112 87 112 128 178 152 113 53 141 255 46 60 279 48 213 235 239 206 203 217 220 309 19 183 165 172 197 206 164 38 345 182 178 179 128 84 74 85 77 316 212 213 271 263 235 205 175 191 266 251 163 153 208 218 204 194 186 176 172 172 166 156 151 146
213 211 214 211 201 201 206 216 213 199 203 200 178 169 161 169 184 134 190 228 268 95 97 103 133 145 143 144 175 172 147 89 85 124 147 187 187 316 287 289 282 259 231 232 231 157 95 102 95 183 196 154 116 57 20 62 130 148 125 89 75 72 73 31 272 119 281 258 220 206 199 184 263 267 176 172 210 174 160 160 164 165 166 168 161 154 150 145
217 210 208 206 202 196 195 216 216 198 200 197 167 156 155 144 123 183 202 241 351 130 140 133 129 140 157 164 173 187 177 140 134 149 161 175 170 203 235 172 224 295 339 274 253 142 137 146 101 98 74 109 104 71 21 28 98 132 124 118 111 42 43 41 299 169 226 253 224 212 210 189 217 275 205 162 125 131 146 159 163 167 168 165 160 155 153 151
220 216 210 206 206 199 194 212 208 194 197 181 158 150 148 121 212 215 213 81 130 190 148 142 155 163 178 181 172 174 174 160 165 168 161 170 180 191 202 193 161 166 228 233 213 181 213 207 161 89 302 162 130 97 36 10 41 147 145 145 139 123 103 195 208 196 223 250 271 293 243 198 217 256 213 164 131 123 139 156 164 166 165 163 159 155 152 153
222 219 213 208 206 202 202 212 203 192 188 168 154 148 138 166 215 214 204 188 177 185 118 135 170 177 180 190 177 160 169 168 167 173 167 168 188 204 213 214 189 191 217 188 185 182 240 229 174 153 305 197 172 164 164 185 188 181 172 165 165 165 191 216 205 214 232 243 288 319 339 219 250 260 221 157 125 99 99 133 155 156 157 158 154 152 149 152
225 218 213 209 208 205 204 207 201 189 179 160 149 163 163 195 216 194 199 212 169 89 125 144 162 167 180 198 166 146 166 181 164 171 179 175 195 206 207 217 211 211 186 166 185 174 204 265 187 171 175 183 190 195 173 151 169 194 189 177 190 186 185 199 195 215 212 167 311 314 63 169 200 243 181 102 84 63 65 105 132 133 139 139 138 146 149 155
226 218 213 207 205 205 202 202 196 182 170 155 160 176 182 210 213 177 195 202 174 134 140 140 143 157 190 203 152 153 162 165 168 179 192 189 204 202 192 206 206 202 183 188 196 173 205 258 184 164 160 169 185 206 158 132 157 205 197 199 219 212 164 180 193 183 137 96 252 227 243 216 183 99 85 90 72 63 64 97 123 128 132 135 145 157 159 164
220 215 211 202 201 202 198 196 189 177 167 156 182 190 200 213 193 171 182 174 169 149 132 140 148 160 187 175 168 190 291 65 168 183 211 207 221 212 196 195 195 198 195 187 188 172 191 259 7 73 34 161 180 212 164 140 159 190 189 203 204 112 86 162 271 50 91 284 237 177 246 279 163 47 118 122 111 116 128 132 135 137 142 150 164 170 169 173
211 206 205 202 201 197 192 190 182 176 171 168 189 198 214 215 176 159 159 140 148 143 140 174 184 173 184 179 182 193 189 74 170 178 185 196 225 217 208 204 190 198 204 196 207 194 161 187 297 171 89 336 317 331 9 78 111 144 183 196 113 41 18 114 267 351 143 250 255 171 198 215 182 222 170 138 163 190 186 166 149 147 155 166 176 174 176 177
202 198 204 207 202 192 189 185 176 174 178 186 200 208 207 201 178 154 141 123 137 148 169 206 190 173 184 183 179 179 174 160 172 179 178 184 213 205 201 206 193 196 205 205 225 265 162 177 285 294 115 35 348 27 310 355 81 127 206 213 110 152 243 164 186 240 186 224 271 205 196 196 194 197 172 178 194 195 185 169 169 176 176 178 175 171 175 172
197 193 224 207 197 191 186 180 172 172 188 188 205 219 207 205 195 168 154 145 143 163 189 205 190 184 191 179 159 162 174 174 168 173 188 191 207 204 191 195 198 193 194 199 212 258 169 194 249 312 43 124 78 172 190 204 189 78 329 321 94 146 202 175 185 206 179 213 254 235 200 211 219 192 176 191 196 180 172 172 185 193 185 178 174 172 176 177
192 194 277 190 189 188 181 174 169 183 196 192 203 205 197 209 202 185 176 166 154 168 190 192 188 190 196 187 161 151 173 181 169 172 206 197 207 269 200 181 184 181 181 198 207 150 92 213 211 321 349 135 170 207 192 191 193 188 199 205 184 159 126 165 252 207 167 194 229 249 256 251 262 204 176 186 185 169 169 177 190 193 181 176 176 175 178 182
176 230 232 171 179 178 169 166 180 194 194 207 211 203 201 204 188 185 190 188 188 243 152 184 191 188 183 187 175 146 160 183 181 183 216 213 207 237 252 196 171 164 155 195 212 170 152 203 152 132 249 210 231 235 192 188 193 192 195 194 187 175 146 166 242 217 159 167 186 203 251 256 288 328 169 168 160 160 169 174 177 175 171 175 179 177 179 185
176 232 181 168 173 168 160 173 192 181 202 210 200 195 191 194 190 181 180 190 200 194 56 183 193 189 180 188 188 158 155 182 192 192 210 220 213 208 249 320 137 140 125 147 207 182 100 117 126 133 214 232 282 315 154 172 186 203 220 202 182 186 184 189 215 207 163 210 182 122 275 267 285 351 9 76 82 86 157 156 154 163 169 174 176 172 175 182
205 199 75 167 170 165 160 198 182 183 220 199 171 180 181 187 194 177 173 188 190 169 167 191 189 195 192 181 186 177 164 180 196 196 206 218 220 219 155 164 128 122 127 157 200 172 98 134 161 55 340 304 294 254 159 114 117 229 237 202 188 205 201 195 204 180 170 200 176 139 254 261 288 354 355 58 55 28 53 123 138 151 161 165 167 165 166 170
163 140 33 174 174 171 173 195 183 199 211 181 172 191 191 198 196 184 183 191 190 173 188 197 186 200 203 162 178 186 173 183 204 201 203 201 198 87 89 179 166 146 157 187 176 167 171 169 151 140 271 269 271 246 236 228 193 206 224 200 200 205 188 176 140 133 215 194 159 171 234 226 233 351 11 58 57 50 67 100 128 142 146 151 153 155 158 161
131 140 14 187 184 184 197 196 182 198 199 188 192 190 186 197 203 198 191 189 192 182 185 200 176 178 177 145 188 196 184 193 207 200 211 211 184 85 41 210 196 170 163 141 151 163 177 184 165 178 211 217 220 226 219 201 180 211 212 196 201 200 183 172 151 181 226 188 161 194 226 189 166 352 19 66 65 143 143 131 134 138 145 152 153 160 163 165
173 203 181 182 210 217 226 196 173 197 199 197 202 193 189 193 193 201 192 189 197 184 166 123 137 156 157 167 192 204 199 205 206 195 207 198 172 56 33 287 250 158 138 124 141 140 127 200 206 207 218 219 220 252 232 140 153 202 205 193 200 202 187 175 182 202 199 160 196 214 184 177 229 214 183 209 214 195 168 159 155 143 150 162 166 173 172 170
213 218 174 155 220 232 237 228 193 200 199 193 195 189 192 196 179 175 198 199 194 183 169 110 154 178 183 183 197 205 194 198 204 208 206 176 129 47 63 100 34 112 127 130 160 119 113 217 221 217 229 233 209 276 287 157 179 199 198 196 203 201 191 192 204 203 151 156 233 212 147 208 235 182 170 209 215 211 195 172 168 167 170 172 165 168 173 174
231 245 206 191 219 203 216 216 200 204 198 185 189 196 194 198 195 190 196 193 180 179 180 185 200 204 198 187 192 197 186 193 210 215 207 169 139 126 117 155 194 155 128 142 198 141 142 223 222 209 226 236 220 266 298 262 201 204 196 199 201 197 200 204 209 203 163 190 239 200 152 214 239 167 171 202 204 204 200 180 171 166 169 170 163 170 180 181
284 296 301 315 265 202 212 200 189 204 202 186 192 205 199 202 205 201 180 161 185 190 189 203 213 212 207 193 185 189 193 199 212 216 201 172 162 154 148 190 201 172 151 165 200 172 168 221 215 195 214 223 216 233 277 360 324 246 210 205 203 203 205 203 209 214 203 217 242 227 186 238 246 151 172 200 201 195 177 156 154 158 168 176 175 183 193 195
297 285 305 341 302 292 288 196 180 199 211 197 199 204 202 205 206 200 176 171 188 192 192 211 218 206 198 196 195 208 211 206 212 211 184 172 181 181 189 194 158 154 177 185 198 202 199 213 191 181 214 223 208 207 224 244 285 287 265 244 221 204 198 199 210 215 213 232 247 257 276 269 250 141 160 191 175 153 139 143 159 172 183 185 186 195 202 206
18 335 7 348 259 197 233 216 180 195 212 208 207 205 207 211 204 196 194 191 193 188 190 208 216 197 181 196 208 220 220 213 216 210 180 181 191 184 192 185 148 153 181 191 183 185 195 210 149 173 212 221 199 189 186 177 238 285 270 257 240 199 182 201 206 194 196 221 237 248 256 258 235 119 149 188 155 156 180 184 187 199 194 185 190 202 210 213
131 332 23 352 299 185 159 357 188 200 209 209 215 215 215 219 203 194 203 205 205 208 202 206 209 191 180 204 214 221 219 198 187 176 158 163 142 118 141 155 153 162 174 179 176 171 181 184 167 184 205 205 168 162 149 128 142 243 246 239 223 202 207 217 213 200 198 202 212 222 235 248 206 113 157 203 183 187 205 201 204 216 207 196 199 206 214 216